Weather History for KBXK - January, 2014

Change the Weather History Date:

Monday, January 27, 2014

  Actual Average (KGYR) Record (KGYR)
Temperature  
Mean Temperature 62 °F -  
Max Temperature 73 °F 66 °F 82 °F (2003)
Min Temperature 48 °F 42 °F 32 °F (2003)
Degree Days  
Heating Degree Days 4    
Growing Degree Days 12 (Base 50)    
Moisture  
Dew Point 27 °F    
Average Humidity 32    
Maximum Humidity 58    
Minimum Humidity 14    
Precipitation  
Precipitation 0.00 in - - ()
Sea Level Pressure  
Sea Level Pressure 29.98 in    
Wind  
Wind Speed 4 mph (WNW)    
Max Wind Speed 10 mph    
Max Gust Speed -    
Visibility 10 miles    
Events      
Averages and records for this station are not official NWS values.
T = Trace of Precipitation, MM = Missing Value Source: NWS Daily Summary

Daily Weather History Graph

Daily Weather History Graph

Search for Another Location

Airport or City:

Trip Planner

Search our weather history database for the weather conditions in past years. The results will help you decide how hot, cold, wet, or windy it might be!

Date:

Astronomy

Jan. 27, 2014 Rise Set
Actual Time 7:29 AM MST 5:57 PM MST
Civil Twilight 7:03 AM MST 6:23 PM MST
Nautical Twilight 6:33 AM MST 6:53 PM MST
Astronomical Twilight 6:04 AM MST 7:23 PM MST
Moon 4:12 AM MST (1/27) 2:49 PM MST (1/27)
Length of Visible Light 11h 20m
Length of Day
10h 27m
Waning Crescent, 14% of the Moon is Illuminated
Jan 27
Waning Crescent
Jan 30
New
Feb 6
First Quarter
Feb 14
Full
Feb 22
Last Quarter

Hourly Weather History & Observations

Time (MST) Temp. Dew Point Humidity Pressure Visibility Wind Dir Wind Speed Gust Speed Precip Events Conditions
12:15 AM 51.8 °F 26.6 °F 38% 29.97 in 10.0 mi NE 4.6 mph - N/A   Overcast
12:35 AM 53.6 °F 26.6 °F 35% 29.96 in 10.0 mi North 4.6 mph - N/A   Overcast
12:55 AM 53.6 °F 26.6 °F 35% 29.96 in 10.0 mi NNW 4.6 mph - N/A   Overcast
1:15 AM 53.6 °F 26.6 °F 35% 29.97 in 10.0 mi NNW 5.8 mph - N/A   Overcast
1:35 AM 53.6 °F 26.6 °F 35% 29.96 in 10.0 mi North 4.6 mph - N/A   Overcast
1:55 AM 53.6 °F 26.6 °F 35% 29.96 in 10.0 mi NNE 3.5 mph - N/A   Overcast
2:15 AM 53.6 °F 26.6 °F 35% 29.96 in 10.0 mi Calm Calm - N/A   Overcast
2:35 AM 51.8 °F 32.0 °F 47% 29.97 in 10.0 mi WSW 3.5 mph - N/A   Overcast
2:55 AM 51.8 °F 32.0 °F 47% 29.98 in 10.0 mi SSW 5.8 mph - N/A   Overcast
3:15 AM 51.8 °F 33.8 °F 50% 29.97 in 10.0 mi Calm Calm - N/A   Overcast
3:35 AM 51.8 °F 32.0 °F 47% 29.98 in 10.0 mi WNW 4.6 mph - N/A   Overcast
3:55 AM 51.8 °F 30.2 °F 44% 29.97 in 10.0 mi Calm Calm - N/A   Overcast
4:15 AM 53.6 °F 28.4 °F 38% 29.97 in 10.0 mi WNW 4.6 mph - N/A   Overcast
4:35 AM 53.6 °F 28.4 °F 38% 29.97 in 10.0 mi NNW 3.5 mph - N/A   Overcast
4:55 AM 51.8 °F 26.6 °F 38% 29.97 in 10.0 mi North 4.6 mph - N/A   Overcast
5:15 AM 53.6 °F 26.6 °F 35% 29.97 in 10.0 mi NNW 3.5 mph - N/A   Overcast
5:35 AM 53.6 °F 26.6 °F 35% 29.97 in 10.0 mi North 4.6 mph - N/A   Overcast
5:55 AM 53.6 °F 26.6 °F 35% 29.97 in 10.0 mi Calm Calm - N/A   Overcast
6:15 AM 51.8 °F 32.0 °F 47% 29.98 in 9.0 mi Calm Calm - N/A   Overcast
6:35 AM 50.0 °F 35.6 °F 58% 29.98 in 9.0 mi NE 5.8 mph - N/A   Overcast
6:55 AM 51.8 °F 35.6 °F 54% 29.99 in 10.0 mi ENE 5.8 mph - N/A   Overcast
7:15 AM 51.8 °F 32.0 °F 47% 30.00 in 10.0 mi East 5.8 mph - N/A   Overcast
7:35 AM 53.6 °F 32.0 °F 44% 30.01 in 10.0 mi ESE 3.5 mph - N/A   Overcast
7:55 AM 51.8 °F 32.0 °F 47% 30.01 in 10.0 mi Calm Calm - N/A   Overcast
8:15 AM 51.8 °F 33.8 °F 50% 30.02 in 8.0 mi Calm Calm - N/A   Overcast
8:35 AM 53.6 °F 33.8 °F 47% 30.02 in 7.0 mi Calm Calm - N/A   Overcast
8:55 AM 55.4 °F 32.0 °F 41% 30.01 in 7.0 mi South 3.5 mph - N/A   Overcast
9:15 AM 55.4 °F 33.8 °F 44% 30.02 in 9.0 mi Calm Calm - N/A   Scattered Clouds
9:35 AM 55.4 °F 35.6 °F 47% 30.02 in 9.0 mi Calm Calm - N/A   Clear
9:55 AM 57.2 °F 33.8 °F 41% 30.02 in 10.0 mi ESE 4.6 mph - N/A   Clear
10:15 AM 59.0 °F 33.8 °F 39% 30.04 in 10.0 mi Calm Calm - N/A   Clear
10:35 AM 62.6 °F 32.0 °F 32% 30.04 in 10.0 mi NW 4.6 mph - N/A   Clear
10:55 AM 62.6 °F 32.0 °F 32% 30.04 in 10.0 mi NW 4.6 mph - N/A   Clear
11:15 AM 64.4 °F 28.4 °F 26% 30.04 in 10.0 mi Calm Calm - N/A   Clear
11:35 AM 66.2 °F 24.8 °F 21% 30.03 in 10.0 mi Calm Calm - N/A   Clear
11:55 AM 66.2 °F 24.8 °F 21% 30.02 in 10.0 mi Calm Calm - N/A   Clear
12:15 PM 68.0 °F 26.6 °F 21% 30.01 in 10.0 mi Calm Calm - N/A   Clear
12:35 PM 68.0 °F 26.6 °F 21% 30.00 in 10.0 mi Calm Calm - N/A   Clear
12:55 PM 69.8 °F 24.8 °F 18% 29.99 in 10.0 mi WSW 4.6 mph - N/A   Clear
1:15 PM 69.8 °F 26.6 °F 20% 29.98 in 10.0 mi SE 4.6 mph - N/A   Clear
1:35 PM 71.6 °F 24.8 °F 17% 29.96 in 10.0 mi South 4.6 mph - N/A   Clear
1:55 PM 71.6 °F 21.2 °F 15% 29.96 in 10.0 mi SW 3.5 mph - N/A   Clear
2:15 PM 71.6 °F 19.4 °F 14% 29.95 in 10.0 mi South 4.6 mph - N/A   Clear
2:35 PM 71.6 °F 19.4 °F 14% 29.95 in 10.0 mi WSW 6.9 mph - N/A   Clear
2:55 PM 71.6 °F 23.0 °F 16% 29.95 in 10.0 mi WSW 6.9 mph - N/A   Clear
3:15 PM 73.4 °F 24.8 °F 16% 29.94 in 10.0 mi SW 4.6 mph - N/A   Clear
3:35 PM 73.4 °F 28.4 °F 19% 29.94 in 10.0 mi West 5.8 mph - N/A   Clear
3:55 PM 73.4 °F 28.4 °F 19% 29.93 in 10.0 mi SW 4.6 mph - N/A   Clear
4:15 PM 73.4 °F 28.4 °F 19% 29.94 in 10.0 mi WNW 9.2 mph - N/A   Clear
4:35 PM 73.4 °F 32.0 °F 22% 29.94 in 10.0 mi SW 8.1 mph - N/A   Clear
4:55 PM 71.6 °F 32.0 °F 23% 29.94 in 10.0 mi WSW 5.8 mph - N/A   Clear
5:15 PM 71.6 °F 32.0 °F 23% 29.94 in 10.0 mi West 5.8 mph - N/A   Clear
5:35 PM 69.8 °F 32.0 °F 25% 29.94 in 10.0 mi SW 4.6 mph - N/A   Clear
5:55 PM 68.0 °F 33.8 °F 28% 29.94 in 10.0 mi SW 3.5 mph - N/A   Clear
6:15 PM 64.4 °F 32.0 °F 30% 29.95 in 10.0 mi West 4.6 mph - N/A   Clear
6:35 PM 64.4 °F 26.6 °F 24% 29.96 in 10.0 mi West 6.9 mph - N/A   Clear
6:55 PM 64.4 °F 21.2 °F 19% 29.97 in 10.0 mi WNW 9.2 mph - N/A   Clear
7:15 PM 62.6 °F 21.2 °F 20% 29.97 in 10.0 mi WNW 10.4 mph - N/A   Clear
7:35 PM 62.6 °F 19.4 °F 19% 29.97 in 10.0 mi WNW 8.1 mph - N/A   Clear
7:55 PM 57.2 °F 24.8 °F 29% 29.97 in 10.0 mi West 3.5 mph - N/A   Clear
8:15 PM 57.2 °F 23.0 °F 27% 29.97 in 10.0 mi West 3.5 mph - N/A   Clear
8:35 PM 55.4 °F 23.0 °F 29% 29.98 in 10.0 mi North 3.5 mph - N/A   Clear
8:55 PM 57.2 °F 21.2 °F 25% 29.98 in 10.0 mi WNW 4.6 mph - N/A   Clear
9:15 PM 51.8 °F 23.0 °F 33% 29.99 in 10.0 mi North 4.6 mph - N/A   Clear
9:35 PM 55.4 °F 19.4 °F 25% 29.99 in 10.0 mi Calm Calm - N/A   Clear
9:55 PM 53.6 °F 21.2 °F 28% 29.99 in 10.0 mi Calm Calm - N/A   Clear
10:15 PM 50.0 °F 23.0 °F 35% 30.00 in 10.0 mi NW 6.9 mph - N/A   Clear
10:35 PM 50.0 °F 23.0 °F 35% 29.99 in 10.0 mi NNW 8.1 mph - N/A   Clear
10:55 PM 50.0 °F 21.2 °F 32% 29.99 in 10.0 mi North 9.2 mph - N/A   Clear
11:15 PM 50.0 °F 21.2 °F 32% 29.99 in 10.0 mi North 8.1 mph - N/A   Scattered Clouds
11:35 PM 50.0 °F 19.4 °F 30% 30.00 in 10.0 mi NNW 9.2 mph - N/A   Partly Cloudy
11:55 PM 48.2 °F 19.4 °F 32% 30.00 in 10.0 mi North 9.2 mph - N/A   Clear